Terminal Aerodrome Forecast
Issued by NWS

Home | Current Version | Previous Version | Graphics & Text | Print | Product List | Glossary On
Versions: 1 2 3 4 5 6 7 8 9 10 11 12 13 14 15 16 17 18 19 20 21 22 23 24 25 26 27 28
000
FTUS43 KABR 240900 AAB
TAFATY
TAF AMD
KATY 240943Z 2410/2506 33014KT 5SM BR OVC003
     FM241500 29010KT 5SM BR OVC010
     FM241800 22006KT P6SM BKN010 OVC050=

USA.gov is the U.S. government's official web portal to all federal, state and local government web resources and services.